Whiteman AFB, MO

12:22 AM CST on December 06, 2019 (GMT -0600)
Whiteman Air Force Base

Weather History for KSZL - November, 2019

Change the Weather History Date:

Tuesday, November 19, 2019

  Actual Average Record
Temperature  
Mean Temperature 52 °F -  
Max Temperature 62 °F 52 °F 71 °F (2011)
Min Temperature 41 °F 34 °F 18 °F (2014)
Degree Days  
Heating Degree Days 14    
Growing Degree Days 2 (Base 50)    
Moisture  
Dew Point 37 °F    
Average Humidity 67    
Maximum Humidity 100    
Minimum Humidity 29    
Precipitation  
Precipitation 0.00 in - - ()
Sea Level Pressure  
Sea Level Pressure 29.89 in    
Wind  
Wind Speed 7 mph (WNW)    
Max Wind Speed 10 mph    
Max Gust Speed -    
Visibility 10 miles    
Events      
Averages and records for this station are not official NWS values.
T = Trace of Precipitation, MM = Missing Value Source: NWS Daily Summary

Daily Weather History Graph

Daily Weather History Graph

Search for Another Location

Airport or City:

Astronomy

Nov. 19, 2019 Rise Set
Actual Time 7:00 AM CST 4:58 PM CST
Civil Twilight 6:31 AM CST 5:26 PM CST
Nautical Twilight 5:59 AM CST 5:59 PM CST
Astronomical Twilight 5:28 AM CST 6:30 PM CST
Moon 11:53 PM CST (11/19) 1:12 PM CST (11/19)
Length of Visible Light 10h 54m
Length of Day
9h 57m
Waning Gibbous, 51% of the Moon is Illuminated
Nov 19
Waning Gibbous
Nov 19
Last Quarter
Nov 26
New
Dec 4
First Quarter
Dec 11
Full

Hourly Weather History & Observations

Time (CST) Temp. Windchill Dew Point Humidity Pressure Visibility Wind Dir Wind Speed Gust Speed Precip Events Conditions
12:56 AM 45.5 °F 40.8 °F 41.2 °F 85% 29.73 in 10.0 mi WNW 9.2 mph - N/A   Clear
1:56 AM 47.5 °F - 44.8 °F 90% 29.75 in 10.0 mi NW 10.4 mph - N/A   Clear
2:56 AM 46.0 °F 41.4 °F 44.4 °F 94% 29.76 in 10.0 mi NW 9.2 mph - N/A   Clear
5:56 AM 44.4 °F 40.0 °F 44.4 °F 100% 29.81 in 10.0 mi NW 8.1 mph - N/A   Clear
6:56 AM 41.0 °F 38.0 °F 41.0 °F 100% 29.85 in 10.0 mi WNW 4.6 mph - N/A   Partly Cloudy
7:56 AM 42.6 °F 39.0 °F 42.6 °F 100% 29.88 in 10.0 mi West 5.8 mph - N/A   Partly Cloudy
8:56 AM 48.4 °F - 45.3 °F 89% 29.89 in 10.0 mi WNW 9.2 mph - N/A   Partly Cloudy
9:56 AM 51.6 °F - 44.2 °F 76% 29.92 in 10.0 mi NW 10.4 mph - N/A   Partly Cloudy
10:56 AM 56.1 °F - 41.2 °F 57% 29.94 in 10.0 mi WNW 8.1 mph - N/A   Partly Cloudy
12:56 PM 61.0 °F - 35.2 °F 38% 29.90 in 10.0 mi West 9.2 mph - N/A   Partly Cloudy
1:56 PM 62.4 °F - 33.6 °F 34% 29.89 in 10.0 mi Calm Calm - N/A   Partly Cloudy
2:56 PM 62.6 °F - 32.4 °F 32% 29.89 in 10.0 mi West 4.6 mph - N/A   Partly Cloudy
3:56 PM 62.2 °F - 29.7 °F 29% 29.90 in 10.0 mi West 4.6 mph - N/A   Partly Cloudy
4:56 PM 55.4 °F - 31.5 °F 40% 29.91 in 10.0 mi Calm Calm - N/A   Clear
5:56 PM 48.4 °F - 32.0 °F 53% 29.93 in 10.0 mi Calm Calm - N/A   Partly Cloudy
6:56 PM 45.9 °F - 32.7 °F 60% 29.93 in 10.0 mi Calm Calm - N/A   Scattered Clouds
7:56 PM 46.0 °F - 32.0 °F 58% 29.93 in 10.0 mi Calm Calm - N/A   Partly Cloudy
8:56 PM 43.2 °F - 33.3 °F 68% 29.95 in 10.0 mi Calm Calm - N/A   Partly Cloudy
9:56 PM 43.7 °F - 33.8 °F 68% 29.95 in 10.0 mi Calm Calm - N/A   Clear
10:56 PM 44.4 °F 41.2 °F 34.2 °F 67% 29.96 in 10.0 mi South 5.8 mph - N/A   Clear
11:56 PM 43.5 °F 40.9 °F 33.3 °F 67% 29.97 in 10.0 mi SSE 4.6 mph - N/A   Clear